Regional Weather Roundup
Issued by NWS

Home | Current Version | Previous Version | Text Only | Print | Product List | Glossary On
Versions: 1 2 3 4 5 6 7 8 9 10 11 12 13 14 15 16 17 18 19 20 21 22 23 24 25 26 27 28 29 30 31 32 33 34 35 36 37 38 39 40 41 42 43 44 45 46 47 48 49 50
000
ASUS43 KDTX 222201
RWRMI
MICHIGAN HOURLY REGIONAL WEATHER ROUNDUP
NATIONAL WEATHER SERVICE DETROIT/PONTIAC MI
600 PM EDT SAT JUL 22 2017

NOTE: "FAIR" INDICATES FEW OR NO CLOUDS BELOW 12,000 FEET WITH NO
SIGNIFICANT WEATHER AND/OR OBSTRUCTION TO VISIBILITY.

MIZ047>049-052>055-059>063-066>070-074>076-081>083-222300-
SOUTHEAST LOWER MICHIGAN

CITY           SKY/WX    TMP DP  RH WIND       PRES   REMARKS
ADRIAN         FAIR      84  70  62 NW9       29.77S
ALMA           CLOUDY    76  68  78 MISG      29.80R
ANN ARBOR      CLOUDY    81  71  71 W15       29.76R
BAD AXE        RAIN      67  66  96 E3        29.80S
CARO           CLOUDY    70  67  92 CALM      29.77S FOG
DETROIT CITY   CLOUDY    82  73  74 SE7       29.72S
DETROIT        PTSUNNY   86  69  56 NW14      29.73S HX  90
FLINT          CLOUDY    77  71  82 NW12      29.76S
GROSSE ILE     FAIR      85  72  65 W8        29.72S HX  90
HILLSDALE      PTSUNNY   82  66  57 W13       29.79S
HOWELL         CLOUDY    78  71  79 NW10      29.78R

CITY           SKY/WX    TMP DP  RH WIND       PRES   REMARKS
JACKSON        PTSUNNY   81  68  64 NW15      29.78S
LAMBERTVILLE   PTSUNNY   84  71  63 NW7G17    29.74S
LANSING        CLOUDY    80  71  74 NW14      29.78S
LAPEER         CLOUDY    73  70  92 CALM      29.78R
MASON          CLOUDY    81  71  73 W9G16     29.78S
MONROE         FAIR      85  72  63 NW9       29.73S HX  91
MT. CLEMENS    LGT RAIN  79  72  80 NE5       29.72R
PONTIAC        PTSUNNY   79  72  79 NW14      29.75R
PORT HOPE        N/A     69  65  86 E14       29.79R
PORT HURON     LGT RAIN  75  70  83 NE3       29.76R
TRI CITIES     CLOUDY    72  71  97 N13       29.78S
MIDLAND        CLOUDY    70  69  95 N6        29.79S
TROY           CLOUDY    82  72  73 NW7       29.77R
SAGINAW HB     CLOUDY    72  70  94 N5        29.77R
$$
MIZ043>046-050>051-056>058-064>065-071>073-077>080-222300-
SOUTHWEST LOWER MICHIGAN

CITY           SKY/WX    TMP DP  RH WIND       PRES   REMARKS
BATTLE CREEK   PTSUNNY   79  69  71 NW12      29.81R
BENTON HARBOR  FAIR      77  68  73 NW8       29.82S
BIG RAPIDS     FAIR      77  64  65 NW3       29.80S
COLDWATER      PTSUNNY   82  69  64 NW12G18   29.80R
FREMONT        PTSUNNY   77  68  73 NW3       29.80S
HOLLAND        CLOUDY    72  68  87 NW10      29.82R
GRAND RAPIDS   PTSUNNY   80  71  74 W8        29.79R
IONIA          CLOUDY    77  70  79 NW8       29.79R
KALAMAZOO      CLOUDY    78  66  66 W12       29.81R
LUDINGTON      PTSUNNY   76  68  78 NW6       29.79S
MARSHALL       CLOUDY    81  69  68 W9        29.79R
MUSKEGON       PTSUNNY   74  69  85 W12       29.80S
SOUTH HAVEN    CLOUDY    77  71  82 NW7       29.82S
$$
MIZ016>042-222300-
NORTHERN LOWER MICHIGAN

CITY           SKY/WX    TMP DP  RH WIND       PRES   REMARKS
ALPENA         CLOUDY    73  66  78 SE8       29.83S
BEAVER ISLAND  CLOUDY    76  66  71 E6        29.80F
BELLAIRE       CLOUDY    80  65  59 N6        29.78S
CADILLAC       PTSUNNY   81  65  57 NE3       29.81S
CHARLEVOIX     CLOUDY    74  67  78 N6        29.82S
FRANKFORT      FAIR      78  66  66 N5        29.79S
GAYLORD        CLOUDY    73  63  70 E6        29.83R
GRAYLING       CLOUDY    74  64  72 SE7       29.83R
HARBOR SPRINGS CLOUDY    79  63  58 E8        29.79S
HOUGHTON LAKE  CLOUDY    73  65  75 SE6       29.83S
MANISTEE       FAIR      79  66  64 NW8       29.78
OSCODA         CLOUDY    69  67  92 S7        29.82R FOG
PELLSTON       CLOUDY    78  65  63 NE9       29.81S
ROGERS CITY    CLOUDY    73  67  82 E8        29.83R
TRAVERSE CITY  PTSUNNY   78  63  59 N8        29.78S
$$
MIZ007>008-015-222300-
EASTERN UPPER MICHIGAN

CITY           SKY/WX    TMP DP  RH WIND       PRES   REMARKS
KINROSS        CLOUDY    74  60  61 NE8       29.83S
MACKINAC ISLAN FAIR      70  64  81 E10       29.82S
NEWBERRY       CLOUDY    73  65  76 E6        29.81F
S. S. MARIE    PTSUNNY   74  61  63 VRB6      29.83S
MUNISING         N/A     71  66  84 N3        29.78F
$$
MIZ004>006-011>014-085-222300-
CENTRAL UPPER MICHIGAN

CITY           SKY/WX    TMP DP  RH WIND       PRES   REMARKS
MANISTIQUE     FAIR      74  65  75 SE8       29.80S
ESCANABA       FAIR      75  66  73 SE9       29.79F
MENOMINEE      FAIR      78  67  68 S8        29.80F
SAWYER-GWINN   CLOUDY    70  63  78 N10       29.80S
$$
MIZ001>003-009>011-084-222300-
WESTERN UPPER MICHIGAN

CITY           SKY/WX    TMP DP  RH WIND       PRES   REMARKS
IRON MOUNTAIN  FAIR      82  66  58 S8        29.77F
HOUGHTON       FAIR      66  57  72 E10       29.82S
COPPER HARBOR    N/A     63  52  67 CALM      29.82F
IRONWOOD       FAIR      73  65  75 W10       29.83S
$$

ABBREVIATIONS USED IN REMARKS
   TC - TEMPERATURE IN CELSIUS
  WCI - WIND CHILL INDEX
   HX - HEAT INDEX
  VSB - VISIBILITY




USA.gov is the U.S. government's official web portal to all federal, state and local government web resources and services.